Location: Namasale
(1.5000°N, 32.6167°E)
Time: 22:13:31
(UTC+00:00)

Vanguard 3 - Pass Details

Date: 28 April 2021
Orbit: 507 x 3262 km, 33.4° (Epoch: 16 May)

Event Time Altitude Azimuth Distance (km) Brightness Sun altitude
Rises 02:58:42 0° 336° (NNW) 2,585 9.7 -11.3°
Reaches altitude 10° 03:01:32 10° 2° (N) 1,768 9.1 -10.7°
Maximum altitude 03:03:49 15° 39° (NE) 1,595 9.5 -10.1°
Drops below altitude 10° 03:06:25 10° 75° (ENE) 2,084 11.0 -9.5°
Sets 03:10:16 0° 98° (E) 3,391 11.8 -8.5°
